Portada
METAR-TAF:

METAR-TAF

Aeropuertos :

Chariton Municipal Airport

Chariton, Iowa, Estados Unidos

latitud: 41-02N, longitud: 093-22W, altitud: 320 m

Observación

El informe se hizo hace 26 minutos, a las 08:15 UTC
Viento 5 kt del este-sureste
Temperatura 22°C
Humedad 94%
Presión 1016 hPa
Visibilidad: 16.1 km
Escasas nubes a una altura de 3700 ft
Cielo cubierto a una altura de 11000 ft

METAR: KCNC 060815Z AUTO 11005KT 10SM FEW037 OVC110 22/21 A3000 RMK AO2

Hora: 03:41 (08:41 UTC)


TAF: falta

Observaciones y pronósticos meteorológicos de más de 4000 aeropuertos (mensajes METAR y TAF).

Los puntos amarillos y rojos representan las estaciones disponibles.

Ponga el ratón en el punto deseado para ver el nombre de la estación.

Haga clic para ver las observaciones y los pronósticos meteorológicos.

Para cambiar el mapa : haga clic en los botones verdes con una cruz de color negro para hacer un zoom, en el botón verde con un guión para alejar o en las flechas verdes para mapas adyacentes.


METAR-TAF: